TimeCST,TemperatureF,Dew PointF,Humidity,Sea Level PressureIn,VisibilityMPH,Wind Direction,Wind SpeedMPH,Gust SpeedMPH,PrecipitationIn,Events,Conditions,WindDirDegrees,DateUTC
12:13 AM,19.4,17.6,93,29.80,-9999.0,WSW,12.7,-,N/A,,Unknown,250,2014-01-19 06:13:00
12:33 AM,17.6,17.6,100,29.79,-9999.0,WSW,8.1,-,N/A,,Unknown,250,2014-01-19 06:33:00
12:53 AM,19.4,17.6,93,29.78,-9999.0,WSW,10.4,-,N/A,,Unknown,240,2014-01-19 06:53:00
1:13 AM,19.4,17.6,93,29.77,-9999.0,SW,10.4,-,N/A,,Unknown,230,2014-01-19 07:13:00
1:33 AM,17.6,15.8,93,29.76,-9999.0,SW,10.4,-,N/A,,Unknown,230,2014-01-19 07:33:00
1:53 AM,17.6,15.8,93,29.74,-9999.0,SW,11.5,-,N/A,,Unknown,230,2014-01-19 07:53:00
2:13 AM,17.6,17.6,100,29.71,-9999.0,SW,16.1,-,N/A,,Unknown,230,2014-01-19 08:13:00
2:33 AM,19.4,17.6,93,29.71,-9999.0,WSW,16.1,-,N/A,,Unknown,240,2014-01-19 08:33:00
2:53 AM,19.4,17.6,93,29.70,-9999.0,WSW,11.5,-,N/A,,Unknown,250,2014-01-19 08:53:00
3:13 AM,21.2,19.4,93,29.70,-9999.0,WSW,11.5,-,N/A,,Unknown,250,2014-01-19 09:13:00
3:33 AM,21.2,19.4,93,29.69,-9999.0,WSW,12.7,-,N/A,,Unknown,250,2014-01-19 09:33:00
3:53 AM,23.0,19.4,86,29.68,-9999.0,WSW,16.1,-,N/A,,Unknown,250,2014-01-19 09:53:00
4:13 AM,24.8,19.4,80,29.67,-9999.0,West,16.1,-,N/A,,Clear,260,2014-01-19 10:13:00
4:33 AM,24.8,19.4,80,29.67,-9999.0,West,11.5,-,N/A,,Clear,260,2014-01-19 10:33:00
4:53 AM,21.2,17.6,86,29.66,-9999.0,WSW,9.2,-,N/A,,Clear,250,2014-01-19 10:53:00
5:13 AM,19.4,15.8,86,29.65,-9999.0,WSW,8.1,-,N/A,,Unknown,250,2014-01-19 11:13:00
5:33 AM,19.4,15.8,86,29.65,-9999.0,West,10.4,-,N/A,,Unknown,260,2014-01-19 11:33:00
5:53 AM,23.0,17.6,80,29.64,-9999.0,West,8.1,-,N/A,,Clear,270,2014-01-19 11:53:00
6:13 AM,24.8,17.6,74,29.63,-9999.0,West,9.2,-,N/A,,Clear,260,2014-01-19 12:13:00
6:33 AM,23.0,17.6,80,29.64,-9999.0,West,10.4,-,N/A,,Clear,280,2014-01-19 12:33:00
6:53 AM,24.8,17.6,74,29.62,-9999.0,West,8.1,-,N/A,,Clear,280,2014-01-19 12:53:00
7:13 AM,21.2,17.6,86,29.61,-9999.0,West,8.1,-,N/A,,Clear,260,2014-01-19 13:13:00
7:33 AM,19.4,15.8,86,29.60,-9999.0,WSW,6.9,-,N/A,,Unknown,250,2014-01-19 13:33:00
7:53 AM,21.2,17.6,86,29.62,-9999.0,West,9.2,-,N/A,,Unknown,270,2014-01-19 13:53:00
8:13 AM,23.0,17.6,80,29.61,-9999.0,West,8.1,-,N/A,,Clear,270,2014-01-19 14:13:00
8:33 AM,23.0,17.6,80,29.62,-9999.0,West,9.2,-,N/A,,Clear,270,2014-01-19 14:33:00
8:53 AM,24.8,19.4,80,29.61,-9999.0,West,5.8,-,N/A,,Clear,270,2014-01-19 14:53:00
9:13 AM,24.8,19.4,80,29.60,-9999.0,WSW,6.9,-,N/A,,Clear,250,2014-01-19 15:13:00
9:33 AM,28.4,21.2,74,29.60,-9999.0,West,11.5,-,N/A,,Clear,280,2014-01-19 15:33:00
9:53 AM,28.4,23.0,80,29.59,-9999.0,West,11.5,-,N/A,,Clear,270,2014-01-19 15:53:00
10:13 AM,30.2,24.8,80,29.60,10.0,West,13.8,-,N/A,,Clear,270,2014-01-19 16:13:00
10:33 AM,30.2,24.8,80,29.60,10.0,West,12.7,-,N/A,,Clear,280,2014-01-19 16:33:00
10:53 AM,32.0,26.6,80,29.58,10.0,West,10.4,-,N/A,,Clear,260,2014-01-19 16:53:00
11:13 AM,33.8,26.6,75,29.58,10.0,West,12.7,-,N/A,,Clear,270,2014-01-19 17:13:00
11:33 AM,35.6,28.4,75,29.56,10.0,West,10.4,-,0.01,,Clear,280,2014-01-19 17:33:00
11:53 AM,35.6,28.4,75,29.55,10.0,West,13.8,-,N/A,,Clear,280,2014-01-19 17:53:00
12:13 PM,37.4,28.4,70,29.54,10.0,West,15.0,-,N/A,,Clear,270,2014-01-19 18:13:00
12:33 PM,37.4,28.4,70,29.53,10.0,West,15.0,-,N/A,,Clear,280,2014-01-19 18:33:00
12:53 PM,39.2,28.4,65,29.54,10.0,WNW,17.3,21.9,N/A,,Clear,290,2014-01-19 18:53:00
1:13 PM,39.2,28.4,65,29.54,10.0,WNW,18.4,23.0,N/A,,Clear,290,2014-01-19 19:13:00
1:33 PM,41.0,28.4,61,29.53,10.0,WNW,19.6,24.2,N/A,,Clear,300,2014-01-19 19:33:00
1:53 PM,42.8,28.4,57,29.53,10.0,WNW,21.9,27.6,N/A,,Clear,300,2014-01-19 19:53:00
2:13 PM,42.8,28.4,57,29.53,10.0,WNW,21.9,28.8,N/A,,Clear,300,2014-01-19 20:13:00
2:33 PM,42.8,28.4,57,29.54,10.0,WNW,23.0,31.1,N/A,,Clear,300,2014-01-19 20:33:00
2:53 PM,41.0,30.2,65,29.54,10.0,WNW,21.9,27.6,N/A,,Clear,300,2014-01-19 20:53:00
3:13 PM,41.0,30.2,65,29.55,10.0,NW,24.2,32.2,N/A,,Clear,310,2014-01-19 21:13:00
3:33 PM,41.0,30.2,65,29.57,10.0,NW,24.2,31.1,N/A,,Clear,310,2014-01-19 21:33:00
3:53 PM,39.2,30.2,70,29.58,10.0,NW,21.9,33.4,N/A,,Clear,310,2014-01-19 21:53:00
4:13 PM,39.2,30.2,70,29.60,10.0,NW,23.0,31.1,N/A,,Clear,310,2014-01-19 22:13:00
4:33 PM,39.2,30.2,70,29.61,10.0,NW,19.6,28.8,N/A,,Clear,310,2014-01-19 22:33:00
4:53 PM,39.2,30.2,70,29.63,10.0,NW,18.4,25.3,N/A,,Clear,310,2014-01-19 22:53:00
5:13 PM,37.4,30.2,75,29.64,10.0,NW,19.6,25.3,N/A,,Clear,320,2014-01-19 23:13:00
5:33 PM,37.4,30.2,75,29.64,10.0,NW,15.0,20.7,N/A,,Clear,320,2014-01-19 23:33:00
5:53 PM,37.4,30.2,75,29.66,10.0,NW,17.3,23.0,N/A,,Clear,320,2014-01-19 23:53:00
6:13 PM,37.4,30.2,75,29.67,10.0,NW,13.8,19.6,N/A,,Clear,320,2014-01-20 00:13:00
6:33 PM,37.4,30.2,75,29.68,10.0,NW,13.8,18.4,N/A,,Clear,320,2014-01-20 00:33:00
6:53 PM,37.4,30.2,75,29.69,10.0,NW,12.7,18.4,N/A,,Clear,320,2014-01-20 00:53:00
7:13 PM,35.6,30.2,81,29.70,10.0,NW,13.8,-,N/A,,Clear,320,2014-01-20 01:13:00
7:33 PM,35.6,30.2,81,29.70,10.0,NW,12.7,-,N/A,,Clear,320,2014-01-20 01:33:00
7:53 PM,35.6,30.2,81,29.70,10.0,NW,12.7,-,N/A,,Clear,320,2014-01-20 01:53:00
8:13 PM,35.6,30.2,81,29.71,10.0,NW,12.7,18.4,N/A,,Clear,320,2014-01-20 02:13:00
8:33 PM,35.6,28.4,75,29.71,10.0,NW,11.5,-,N/A,,Clear,320,2014-01-20 02:33:00
8:53 PM,35.6,28.4,75,29.71,10.0,NW,8.1,-,N/A,,Clear,310,2014-01-20 02:53:00
9:13 PM,33.8,28.4,81,29.72,10.0,WNW,9.2,-,N/A,,Clear,290,2014-01-20 03:13:00
9:33 PM,32.0,28.4,87,29.72,10.0,West,6.9,-,N/A,,Clear,270,2014-01-20 03:33:00
9:53 PM,32.0,28.4,87,29.74,10.0,West,9.2,-,N/A,,Clear,280,2014-01-20 03:53:00
10:13 PM,32.0,28.4,87,29.74,10.0,WNW,9.2,-,N/A,,Clear,290,2014-01-20 04:13:00
10:33 PM,32.0,28.4,87,29.74,10.0,WNW,9.2,-,N/A,,Clear,290,2014-01-20 04:33:00
10:53 PM,32.0,28.4,87,29.74,10.0,WNW,10.4,-,N/A,,Clear,290,2014-01-20 04:53:00
11:13 PM,33.8,28.4,81,29.75,10.0,WNW,10.4,-,N/A,,Clear,300,2014-01-20 05:13:00
11:33 PM,32.0,28.4,87,29.75,10.0,NW,8.1,-,N/A,,Clear,310,2014-01-20 05:33:00
11:53 PM,30.2,28.4,93,29.76,10.0,WNW,8.1,-,N/A,,Clear,300,2014-01-20 05:53:00